Probability
1 0 0 0 0 0 0 0 0 0 0 0 0 0 0 0 0 0 0 0 0 0 0 0 0 0 0 0 0 0 1 2 3 2 1 0 0 0 0 0 0 0 0 0
1 0 0 0 0 0 0 0 0 0 0 0 0 0 0 0 0 0 0 0 0 0 0 0 0 0 0 0 0 0 1 2 3 2 1 0 0 0 0 0 0 0 0 0
1 0 0 0 0 0 0 0 0 0 0 0 0 0 0 0 0 0 0 0 0 0 0 0 0 0 0 0 0 0 0 1 2 2 1 0 0 0 0 0 0 0 0 0
0 0 0 0 0 0 0 0 0 0 0 0 0 0 0 0 0 0 0 0 0 0 0 0 0 0 0 0 0 0 0 0 1 2 1 0 0 0 0 0 0 0 0 0
0 0 0 0 0 0 0 0 0 0 0 0 0 0 0 0 0 0 0 0 0 0 0 0 0 0 0 0 0 0 0 0 0 1 2 1 0 0 0 0 0 0 0 0
0 0 0 0 0 0 0 0 0 0 0 0 0 0 0 0 0 0 0 0 0 0 0 0 0 0 0 0 0 0 0 0 0 1 2 1 0 0 0 0 0 0 0 0
0 0 0 0 0 0 0 0 0 0 0 0 0 0 0 0 0 0 0 0 0 0 0 0 0 0 0 0 0 0 0 0 0 0 1 1 0 0 0 0 0 0 0 0
0 0 0 0 0 0 0 0 0 0 0 0 0 0 0 0 0 0 0 0 0 0 0 0 0 0 0 0 0 0 0 0 0 0 0 0 0 0 0 0 0 0 0 0
0 0 0 0 0 0 0 0 0 0 0 0 0 0 0 0 0 0 0 0 0 0 0 0 0 0 0 0 0 0 0 0 0 0 0 0 0 0 0 0 0 0 0 0
0 0 0 0 0 0 0 0 0 0 0 0 0 0 0 0 0 0 0 0 0 0 0 0 0 0 0 0 0 0 0 0 0 0 0 0 0 0 0 0 0 0 0 0
0 0 0 0 0 0 0 0 0 0 0 0 0 0 0 0 0 0 0 0 0 0 0 0 0 0 0 0 0 0 0 0 0 0 0 0 0 0 0 0 0 0 0 0
0 0 0 0 0 0 0 0 0 0 0 0 0 0 0 0 0 0 0 0 0 0 0 0 0 0 0 0 0 0 0 0 0 0 0 0 0 0 0 0 0 0 0 0
1 1 1 0 0 0 0 0 0 0 0 0 0 0 0 0 0 0 0 0 0 0 0 0 0 0 0 0 0 0 0 0 0 0 0 0 0 0 0 0 0 0 0 0
1 1 1 0 0 0 0 0 0 0 0 0 0 0 0 0 0 0 0 0 0 0 0 0 0 0 0 0 0 0 0 0 0 0 0 0 0 0 0 0 0 0 0 0
1 1 0 0 0 0 0 0 0 0 0 0 0 0 0 0 0 0 0 0 0 0 0 0 0 0 0 0 0 0 0 0 0 0 0 0 0 0 0 0 0 0 0 0
1 0 0 0 0 0 0 0 0 0 0 0 0 0 0 0 0 0 0 0 0 0 0 0 0 0 0 0 0 0 0 0 0 0 0 0 0 0 0 0 0 0 0 0
0 0 0 0 0 0 0 0 0 0 0 0 0 0 0 0 0 0 0 0 0 0 0 0 0 0 0 0 0 0 0 0 0 0 0 0 0 0 0 0 0 0 0 0
0 0 0 0 0 0 0 0 0 0 0 0 0 0 0 0 0 0 0 0 0 0 0 0 0 0 0 0 0 0 0 0 0 0 0 0 0 0 0 0 0 0 0 0
0 0 0 0 0 0 0 0 0 0 0 0 0 0 0 0 0 0 0 0 0 0 0 0 0 0 0 0 0 0 0 0 0 0 0 0 0 0 0 0 0 0 0 0
0 0 0 0 0 0 0 0 0 0 0 0 0 0 0 0 0 0 0 0 0 0 0 0 0 0 0 0 0 0 0 0 0 0 0 0 0 0 0 0 0 0 0 0
0 0 0 0 0 0 0 0 0 0 0 0 0 0 0 0 0 0 0 0 0 0 0 0 0 0 0 0 0 0 0 0 0 0 0 0 0 0 0 0 0 0 0 0
0 0 0 0 0 0 0 0 0 0 0 0 0 0 0 0 0 0 0 0 0 0 0 0 0 0 0 0 0 0 0 0 0 0 0 0 0 0 0 0 0 0 0 0
0 0 0 0 0 0 0 0 0 0 0 0 0 0 0 0 0 0 0 0 0 0 0 0 0 0 0 0 0 0 0 0 0 0 0 0 0 0 0 0 0 0 0 0
0 0 0 0 0 0 0 0 0 0 0 0 0 0 0 0 0 0 0 0 0 0 0 0 0 0 0 0 0 0 0 0 0 0 0 0 0 0 0 0 0 0 0 0
0 0 0 0 0 0 0 0 0 0 0 0 0 0 0 0 0 0 0 0 0 0 0 0 0 0 0 0 0 0 0 0 0 0 0 0 0 0 0 0 0 0 0 0
0 0 0 0 0 0 0 0 0 0 0 0 0 0 0 0 0 0 0 0 0 0 0 0 0 0 0 0 0 0 0 0 0 0 0 0 0 0 0 0 0 0 0 0
Wind_Speed
10 10 16 19 19 14 10 11 12 10 7 8 11 13 12 10 9 9 8 8 8 9 8 8 9 9 9 9 9 11 11 12 10 9 9 9 9 7 6 7 8 9 9 10
11 20 20 15 15 15 15 14 13 6 3 5 8 13 12 12 12 11 10 10 9 8 7 7 8 8 9 10 10 10 11 12 12 10 10 7 7 6 7 6 8 10 10 10
23 13 14 16 16 17 17 16 13 8 3 2 5 11 14 14 14 13 11 10 9 9 8 7 7 8 9 10 11 10 11 12 13 11 7 6 6 5 7 9 10 12 12 11
20 16 14 16 18 17 17 13 11 8 6 5 6 8 9 11 13 14 13 11 11 10 9 7 7 8 9 10 9 10 10 11 11 12 10 11 11 12 12 9 8 10 12 13
13 16 18 19 18 17 8 6 8 9 8 8 8 9 7 8 12 12 12 12 11 10 9 8 7 7 7 7 8 8 9 9 10 11 13 13 12 11 7 7 9 10 11 13
12 8 14 16 12 11 6 3 3 5 6 13 15 12 9 9 11 9 9 9 9 8 7 6 5 4 4 4 5 6 7 8 8 10 12 13 14 12 10 10 10 9 9 10
13 13 9 7 11 11 10 8 6 8 10 11 10 12 11 8 8 8 6 5 4 4 4 3 3 3 3 3 4 5 6 7 7 9 10 12 14 13 13 12 11 9 8 9
15 14 15 11 14 13 16 14 10 8 7 5 8 12 9 7 6 4 4 3 2 2 2 2 2 2 2 2 3 3 5 6 6 7 9 9 11 10 9 11 10 9 9 9
14 12 11 13 10 12 14 15 10 4 2 3 6 6 7 5 5 5 5 4 4 3 2 2 1 1 1 1 2 2 3 4 5 6 7 7 8 9 9 9 9 8 7 7
7 8 9 12 8 10 10 9 6 9 8 8 7 8 7 7 9 9 8 6 4 3 2 1 1 0 0 1 1 1 2 3 4 4 5 5 7 8 8 8 8 8 8 7
7 6 7 11 17 17 13 12 9 7 6 6 6 6 5 7 8 7 6 4 4 3 2 1 0 0 1 1 1 2 2 3 3 4 4 5 5 6 7 7 8 8 7 8
10 5 6 9 6 9 13 14 13 9 8 6 4 6 1 2 3 5 5 4 3 2 2 1 1 1 2 2 2 2 2 2 3 3 3 4 4 5 5 6 7 7 7 7
13 8 7 6 5 6 10 13 15 11 6 6 7 6 1 2 3 3 4 4 3 3 2 2 2 3 3 3 3 3 3 3 4 3 3 4 4 4 5 6 5 6 6 6
13 7 9 12 8 10 11 13 14 13 10 10 10 8 5 3 3 2 2 3 3 3 2 2 3 3 4 4 4 4 4 4 4 4 3 4 4 4 4 4 4 5 5 6
9 8 7 7 5 9 10 14 15 16 13 10 11 12 12 7 5 3 2 2 2 1 1 1 2 3 3 4 5 5 5 5 4 4 4 4 4 4 4 4 4 4 4 5
7 6 6 7 6 6 9 13 15 17 16 14 11 12 8 4 2 2 2 2 1 1 1 3 3 4 5 5 6 6 6 6 5 4 5 5 5 4 4 4 4 4 4 4
7 7 7 7 5 4 11 14 16 15 14 14 15 14 7 6 5 4 2 1 2 2 2 3 4 4 5 5 6 6 6 6 5 5 5 5 5 5 5 5 4 4 4 4
8 7 4 4 5 13 10 8 12 14 14 12 10 8 8 7 4 2 3 3 1 2 2 3 4 5 5 5 5 6 6 6 5 5 5 5 6 6 5 5 4 4 4 4
7 7 5 5 7 7 6 7 10 12 12 9 10 7 5 4 2 2 2 2 2 1 1 2 3 4 4 5 6 6 6 6 6 6 6 6 6 6 5 5 5 5 4 4
6 6 5 5 7 10 8 6 5 6 10 6 6 6 5 4 5 4 1 3 3 3 4 4 4 4 4 6 6 5 6 6 6 7 7 7 6 6 6 6 5 4 3 4
9 7 9 8 7 8 4 4 7 10 9 4 5 5 4 3 2 1 3 3 4 4 4 5 5 5 5 7 6 6 6 6 7 8 7 7 6 6 6 5 4 4 3 3
11 9 10 8 8 10 3 6 8 5 2 3 3 2 2 2 3 3 3 3 4 4 5 6 5 5 6 7 7 7 7 8 8 8 8 7 6 5 5 5 4 3 3 3
8 8 7 8 7 1 2 4 3 3 4 2 3 3 3 2 2 2 2 3 3 4 5 5 5 6 6 6 6 7 8 8 8 8 8 7 6 5 4 4 4 4 3 2
3 2 4 3 2 3 4 4 5 5 5 5 5 4 3 3 2 2 2 3 4 4 5 5 5 5 6 6 7 7 8 8 7 8 8 7 6 5 4 3 3 3 3 3
3 3 4 4 3 4 2 3 5 6 7 7 6 5 4 3 2 2 2 3 3 4 5 4 5 5 7 7 7 7 8 8 7 7 7 6 5 5 4 3 2 3 2 2
1 2 4 4 5 4 4 4 4 5 5 4 4 4 5 4 3 3 3 3 4 4 4 5 5 6 7 7 7 7 8 7 7 6 6 5 5 4 4 4 3 4 3 4
Wind_Direction
183 199 208 207 210 225 233 228 229 234 225 215 231 244 248 246 239 237 239 238 234 232 225 207 196 191 187 188 191 192 193 193 191 195 201 207 214 212 211 212 209 207 204 200
191 217 218 212 213 223 237 246 248 252 222 231 249 253 252 246 243 236 234 237 238 237 227 213 198 190 190 194 197 200 199 195 195 199 201 204 205 212 216 215 218 216 212 205
209 211 204 214 215 218 226 232 237 239 247 259 286 268 250 247 244 243 237 234 237 237 231 221 204 196 194 199 201 205 206 203 199 196 191 194 201 211 214 216 217 216 215 214
220 221 204 208 216 213 226 224 235 233 230 237 213 266 248 240 238 233 231 228 230 232 231 223 210 202 199 204 203 205 208 207 202 193 196 198 204 213 216 214 214 210 211 216
213 207 210 213 214 211 217 201 222 231 236 249 230 253 256 235 239 231 224 221 219 220 220 220 214 209 206 201 200 205 207 209 205 200 200 204 215 220 218 212 213 212 211 213
228 213 210 217 213 208 196 190 234 238 236 240 228 235 258 224 233 232 223 217 214 212 211 215 217 209 207 198 194 200 205 213 211 208 207 208 216 218 217 217 217 215 212 211
219 226 219 200 195 195 185 175 201 209 218 235 204 221 243 221 229 226 225 218 201 193 198 210 217 213 207 201 200 203 209 221 219 216 216 215 218 219 222 222 223 219 215 213
200 209 206 202 201 193 196 193 200 208 213 223 194 220 241 217 214 208 205 197 189 185 179 196 211 214 212 210 208 209 217 226 228 225 226 224 220 220 226 226 226 223 221 219
197 212 186 197 197 196 195 206 215 235 260 247 227 235 243 207 200 204 206 206 199 186 181 190 191 209 218 210 218 219 234 238 237 237 235 231 225 223 227 229 228 229 227 220
196 200 189 186 185 212 207 186 181 206 206 224 231 227 226 196 202 206 202 196 186 161 143 123 106 86 334 273 262 256 249 252 253 249 244 241 236 229 229 230 234 234 233 226
213 196 185 182 195 194 191 199 199 195 204 204 220 235 220 195 191 191 180 163 151 143 136 125 106 323 289 300 291 275 275 278 277 268 261 254 249 242 236 233 235 237 236 230
194 186 201 204 208 206 204 203 201 204 206 211 227 253 311 92 123 134 138 139 136 136 129 129 123 44 22 0 342 325 310 298 288 282 277 271 267 258 249 244 242 239 240 236
179 180 177 189 217 214 213 210 210 217 215 210 216 242 214 118 103 123 134 132 123 104 70 45 38 30 14 357 345 334 328 316 306 298 289 284 276 266 258 256 253 245 242 240
173 186 202 203 190 182 201 209 210 213 221 223 225 234 244 215 191 175 149 133 114 92 70 35 17 7 1 351 341 333 330 327 318 311 306 299 295 287 279 273 266 257 248 244
177 196 219 244 221 185 197 205 209 215 218 221 231 233 233 223 210 188 150 126 99 73 43 19 2 353 348 346 344 343 337 334 329 324 318 309 309 305 300 293 283 275 264 256
179 183 197 237 242 227 227 215 212 217 220 226 236 246 242 237 223 204 180 151 137 79 16 9 4 359 353 350 345 341 336 337 338 333 322 320 318 315 313 309 303 294 281 271
173 163 176 216 211 223 237 220 217 219 219 217 228 236 227 226 224 222 205 167 115 73 26 9 3 356 349 348 343 339 336 339 340 333 328 327 324 320 316 313 310 298 290 284
171 169 172 173 175 224 234 215 220 227 229 225 227 226 222 222 210 145 110 119 88 40 24 5 355 348 347 348 345 340 339 338 333 330 329 329 325 317 315 314 304 298 296 289
179 170 175 185 211 243 251 214 205 214 232 223 224 223 225 216 190 150 81 84 87 29 15 8 356 340 338 343 343 339 335 335 334 331 329 324 317 310 309 306 299 297 295 289
190 176 177 191 203 223 229 203 190 193 240 223 203 203 213 195 211 219 103 77 61 39 26 8 356 350 350 350 350 341 330 332 330 325 320 318 313 306 301 296 294 292 288 285
184 192 200 206 221 241 233 177 147 188 223 181 177 190 192 194 209 111 72 60 54 38 20 7 359 354 350 352 349 333 325 323 319 315 313 312 312 306 298 297 294 292 289 290
181 185 196 196 213 233 204 158 179 196 116 108 128 136 129 114 94 83 69 52 37 25 17 10 358 348 348 351 344 326 319 320 320 317 313 310 311 308 304 303 304 301 293 290
192 191 183 191 204 151 110 124 106 98 115 88 85 80 101 110 94 63 46 36 23 17 8 2 350 337 341 347 342 322 319 324 322 317 311 310 314 313 310 308 307 306 298 286
208 186 155 160 175 136 109 87 66 75 89 77 72 72 75 84 69 43 27 14 6 3 0 353 345 336 335 341 340 327 324 325 317 311 311 315 318 317 315 306 299 294 290 285
170 164 162 174 142 122 121 94 89 85 80 72 58 51 53 61 47 28 6 358 354 353 352 349 341 331 328 333 331 329 327 324 317 313 313 316 314 312 315 311 312 303 297 272
76 143 172 190 169 167 149 108 94 94 81 75 73 55 39 38 29 16 2 359 353 347 346 343 338 332 328 327 325 327 326 322 317 314 316 315 312 311 309 312 329 356 333 347